Regional Weather Roundup
Issued by NWS

Home | Current Version | Previous Version | Text Only | Print | Product List | Glossary On
Versions: 1 2 3 4 5 6 7 8 9 10 11 12 13 14 15 16 17 18 19 20 21 22 23 24 25 26 27 28 29 30 31 32 33 34 35 36 37 38 39 40 41 42 43 44 45 46 47 48 49 50
000
ASUS43 KMPX 220401
RWRMN
WEATHER ROUNDUP FOR MINNESOTA
NATIONAL WEATHER SERVICE TWIN CITIES/CHANHASSEN MN
1000 PM CST TUE FEB 21 2017


NOTE: "FAIR" INDICATES FEW OR NO CLOUDS BELOW 12,000 FEET WITH NO
SIGNIFICANT WEATHER AND/OR OBSTRUCTIONS TO VISIBILITY. N/A MEANS
CURRENT SKY AND/OR WEATHER CONDITIONS ARE NOT AVAILABLE.

MNZ060>063-068>070-220500-
   Twin Cities Metro

CITY           SKY/WX    TMP DP  RH WIND       PRES   REMARKS
TWIN CITIES    CLEAR     52  44  74 SW7       29.70S
ST PAUL        CLEAR     47  45  93 SE6       29.71S
CRYSTAL        PTCLDY    49  42  77 S5        29.69R
BLAINE         PTCLDY    48  45  87 S7        29.69S
LAKEVILLE      CLEAR     48  45  87 CALM      29.71S
EDEN PRAIRIE   CLEAR     49  43  80 SW7       29.69S
SOUTH ST PAUL  CLEAR     48  44  85 CALM      29.70F
LAKE ELMO      FAIR      45  43  93 S6        29.71S
$$
MNZ001>005-007-008-013>017-022>024-027-028-220500-
   Northwest Minnesota

CITY           SKY/WX    TMP DP  RH WIND       PRES   REMARKS
BEMIDJI        DRIZZLE   38  37  95 CALM      29.65F
HALLOCK        PTCLDY    32  30  93 CALM      29.68F FOG
ROSEAU         PTCLDY    34  28  80 CALM      29.69F
WARROAD        CLOUDY    32  28  86 CALM      29.70S
THIEF RVR FALL CLOUDY    33  32  96 N3        29.68F FOG
CROOKSTON      CLOUDY    32  32 100 CALM      29.69F FOG
FOSSTON        LGT RAIN  34  34 100 CALM      29.68S
DETROIT LAKES  CLEAR     34  32  93 CALM      29.69R
MOORHEAD       PTCLDY    36  36 100 W6        29.72R
PARK RAPIDS    PTCLDY    37  33  85 CALM      29.67S
MAHNOMEN       FAIR      34  34  99 SW3       29.68R
$$
MNZ006-009>011-018-025>026-220500-
   North Central Minnesota

CITY           SKY/WX    TMP DP  RH WIND       PRES   REMARKS
BAUDETTE       CLOUDY    32  30  92 W5        29.67S WCI  27
FLAG ISLAND    CLOUDY    34  30  86 N6        29.69S WCI  29
INTL FALLS     CLOUDY    36  32  85 N6        29.67R
WASKISH        CLOUDY    36  36 100 W7        29.69R
BIG FORK       CLOUDY    36  32  87 SW3       29.69R
LONGVILLE      CLOUDY    39  37  93 CALM      29.67F
GRAND RAPIDS   LGT RAIN  41  36  82 N8        29.68F
CRANE LAKE     CLOUDY    28  28 100 CALM      29.68S
ORR            CLOUDY    34  28  80 CALM      29.65R
COOK           CLOUDY    34  32  93 CALM      29.68R
WALKER         FAIR      37  35  92 CALM      29.66F
$$
MNZ012-019>021-037-220500-
   Northeast Minnesota

CITY           SKY/WX    TMP DP  RH WIND       PRES   REMARKS
DULUTH         CLOUDY    37  33  85 W3        29.67R
ELY            CLOUDY    34  32  93 CALM      29.65S
HIBBING        CLOUDY    36  35  96 CALM      29.68R
EVELETH        PTCLDY    37  35  91 W3        29.69R
DULUTH HARBOR  PTCLDY    36  34  93 CALM      29.69R
TWO HARBORS    PTCLDY    39  34  81 CALM      29.65R
SILVER BAY     PTCLDY    34  32  93 CALM      29.64F
GRAND MARAIS     N/A     34  32  92 CALM      29.67F
G MARAIS ARPRT CLOUDY    30  27  86 CALM      29.65F
$$
MNZ029>031-032-039>041-046>048-054>057-064-220500-
   West Central Minnesota

CITY           SKY/WX    TMP DP  RH WIND       PRES   REMARKS
FERGUS FALLS   PTCLDY    39  39 100 E6        29.71F
WHEATON        CLOUDY    39  37  93 CALM      29.68S
MORRIS         PTCLDY    37  37 100 CALM      29.66F
ALEXANDRIA     CLEAR     41  39  93 CALM      29.68F
ELBOW LAKE     FAIR      37  37 100 CALM      29.69R
WADENA         CLEAR     37  36  93 SW6       29.68R
GLENWOOD       CLEAR     39  39 100 CALM      29.68S
APPLETON       MOCLDY    39  37  93 E3        29.67S
BENSON         FOG       39  36  87 CALM      29.69S VSB 3/4
ORTONVILLE     CLOUDY    43  39  87 CALM      29.66S
MADISON        MOCLDY    43  43 100 CALM      29.67S
WILLMAR        FAIR      37  37 100 CALM      29.70R
$$
MNZ033>034-036-042>043-049>051-058-059-220500-
   Central Minnesota

CITY           SKY/WX    TMP DP  RH WIND       PRES   REMARKS
ST CLOUD       CLOUDY    39  39 100 CALM      29.67F
SAUK CENTRE    FOG       36  36 100 CALM      29.68S VSB 1/2
PAYNESVILLE    CLEAR     35  36 100 CALM      29.68F
AITKIN         CLOUDY    37  34  87 E3        29.65F FOG
PINE RIVER     PTCLDY    36  36 100 CALM      29.71F
BRAINERD       MOCLDY    38  36  92 SE3       29.67F
STAPLES        CLEAR     36  36 100 CALM      29.69R
LONG PRAIRIE   FAIR      36  34  93 CALM      29.69S
LITTLE FALLS   CLOUDY    37  36  93 CALM      29.67F FOG
LITCHFIELD     CLEAR     43  43 100 S3        29.68F FOG
BUFFALO        PTCLDY    41  39  91 CALM      29.69F
MAPLE LAKE     FOG       40  39  97 CALM      29.69F VSB 1
HUTCHINSON       N/A     43  43 100 CALM      29.70F FOG
$$
MNZ037-044-045-052-053-220500-
   East Central Minnesota

CITY           SKY/WX    TMP DP  RH WIND       PRES   REMARKS
PRINCETON      CLOUDY    43  39  87 CALM      29.69S
MORA           CLOUDY    36  34  93 CALM      29.70S
CAMBRIDGE      PTCLDY    46  41  81 CALM      29.67S
RUSH CITY      CLOUDY    43  39  87 CALM      29.69R
MOOSE LAKE     CLOUDY    37  34  87 CALM      29.68R
HINCKLEY       MOCLDY    39  37  93 CALM      29.69R
CLOQUET        PTCLDY    43  37  81 SW6       29.68R
MCGREGOR       CLOUDY    41  37  87 CALM      29.68S
$$
MNZ071>073-080-081-089-090-097-098-220500-
   Southwest Minnesota

CITY           SKY/WX    TMP DP  RH WIND       PRES   REMARKS
MONTEVIDEO     PTCLDY    43  41  93 S3        29.69S
GRANITE FALLS  CLEAR     44  43  98 SE5       29.68F
CANBY          PTCLDY    40  38  90 W5        29.70R
MARSHALL       CLEAR     46  41  82 SE3       29.68F
REDWOOD FALLS  PTCLDY    44  39  82 S6        29.67F
OLIVIA         CLEAR     39  37  93 CALM      29.69S
PIPESTONE      CLEAR     46  36  66 SE6       29.67F
WINDOM         CLEAR     41  39  93 CALM      29.70F
WORTHINGTON    CLEAR     48  39  71 S8        29.71S
JACKSON        CLEAR     43  37  81 S7        29.71F
TRACY          CLEAR     47  40  75 SW7       29.68F
SLAYTON        PTCLDY    41  38  89 CALM      29.69F
$$
MNZ065>067-074>077-082>085-091>093-220500-
   South Central Minnesota

CITY           SKY/WX    TMP DP  RH WIND       PRES   REMARKS
MANKATO          N/A     48  45  89 CALM      29.72S
NEW ULM        CLEAR     45  43  93 S6        29.69F
ST JAMES       CLEAR     46  43  87 CALM      29.71F
FAIRMONT       CLEAR     47  42  83 S7        29.73S
GLENCOE        CLEAR     47  45  95 S5        29.69S
FARIBAULT      CLEAR     45  43  93 CALM      29.73S
OWATONNA       CLEAR     48  41  76 S8        29.72F
WASECA         CLEAR     45  39  81 S7        29.73S
ALBERT LEA     CLEAR     52  39  62 S8        29.73S
$$
MNZ078>079-086>088-094>096-220500-
   Southeast Minnesota

CITY           SKY/WX    TMP DP  RH WIND       PRES   REMARKS
ROCHESTER      CLEAR     45  40  82 S15       29.74F
RED WING       CLEAR     48  39  71 CALM      29.72S
STANTON        CLEAR     45  41  86 SW5       29.71S
WINONA         CLEAR     52  39  62 SW3       29.75F
AUSTIN         CLEAR     46  39  76 S6        29.75S
PRESTON        CLEAR     48  38  70 S12       29.77S
$$
ABBREVIATIONS USED IN REMARKS
   TC - TEMPERATURES IN CELSIUS
  WCI - WIND CHILL INDEX
   HX - HEAT INDEX
  VSB - VISIBILITY
$$




USA.gov is the U.S. government's official web portal to all federal, state and local government web resources and services.